Orbital Elements at Epoch 2459200.5 (2020-Dec-17.0) TDB
Reference: JPL 31 (heliocentric ecliptic J2000)
Element | Value | Uncertainty (1-sigma) | Units |
e | .1296787817305531 | 3.6725e-08 | |
a | 2.416853096300203 | 8.5694e-09 | au |
q | 2.103438531150278 | 8.9874e-08 | au |
i | 10.89874538891815 | 3.3814e-06 | deg |
node | 271.7387998565385 | 2.1064e-05 | deg |
peri | 304.9325998366526 | 2.6921e-05 | deg |
M | 41.3224565003594 | 1.6129e-05 | deg |
tp | 2459042.972116688912 (2020-Jul-12.47211669) | 6.1648e-05 | TDB |
period | 1372.378188394931 3.76 | 7.299e-06 1.998e-08 | d yr |
n | .2623183631481634 | 1.3952e-09 | deg/d |
Q | 2.730267661450128 | 9.6807e-09 | au |
|
| | Orbit Determination Parameters
Additional Information
|